www.pogodaiklimat.ru

Погода и климат >> Архив погоды >> Бангладеш >> Маймансингх


ПОГОДА в Маймансингхе

  • Прогноз погоды в Маймансингхе
  • Монитор погоды в Маймансингхе

АРХИВ ПОГОДЫ в Маймансингхе

Время (UTC), дата Ветер
(напр.,м/с)
 
Видим.   Явления Облачность Т
(С)
Тd
(С)
f
(%)
Тe
(С)
Тes
(С)
Комфортность P
(гПа)
Po
(гПа)
Тmin
(С)
Tmax
(С)
R
(мм)
R24
(мм)
S
(см)
03 9.09 ЮВ 2 7000 м 9/5 540 м
[Sc diur, vesp As trans]
+30.0 +26.0 79 +45 +48 опасность
перегрева
1004.0 1001.9 +27.1
06 9.09 ЮВ 3 8000 м 8/4 540 м
[Sc diur, vesp Ci fib]
+32.0 +26.0 71 +48 +56 опасность
перегрева
1002.7 1000.7
09 9.09 ЮВ 2 8000 м 9/5 540 м
[Sc diur, vesp Ac As]
+32.7 +27.0 72 +51 +53 опасность
перегрева
999.9 997.9
12 9.09 ЮВ 1 7000 м {гроза, дождь} 10/6 540 м
[Cb calv As op]
+28.0 +26.0 89 +42 +42 опасность
перегрева
1000.2 998.2 +33.1 1
15 9.09 В 1 6000 м 10/4 540 м
[Sc As op]
+27.8 +27.0 95 +44 +44 опасность
перегрева
1002.3 1000.3
18 9.09 В 1 6000 м 10/3 480 м
[Sc As op]
+27.7 +27.0 96 +44 +44 опасность
перегрева
1002.8 1000.8
00 10.09 ЮВ 1 5000 м мгла {дождь} 10/4 540 м
[Sc As trans]
+27.0 +26.0 94 +40 +40 очень
душно
1002.8 1000.7 3
03 10.09 ЮВ 2 6000 м сильная пыльная буря 9/9 540 м
[]
+29.2 +27.0 88 +46 +47 опасность
перегрева
1003.2 1001.1 +26.5
06 10.09 ЮВ 2 7000 м 8/5 540 м
[Sc diur, vesp Ac As]
+32.7 +27.0 72 +51 +57 опасность
перегрева
1002.4 1000.4
09 10.09 ЮВ 2 8000 м 6/5 540 м
[Sc diur, vesp Ac und]
+33.0 +25.0 63 +47 +51 опасность
перегрева
1000.1 998.0
12 10.09 ЮВ 1 8000 м 10/5 540 м
[Sc diur, vesp As trans]
+31.0 +27.0 79 +48 +48 опасность
перегрева
1000.4 998.4 +33.4
15 10.09 ЮЗ 1 5000 м слаб. дождь 10/5 480 м
[Cb calv As trans]
+30.0 +28.0 89 +50 +50 опасность
перегрева
1003.4 1001.4
18 10.09 Ю 3 5000 м зарница {дождь} 10/5 540 м
[Cb calv As trans]
+28.6 +27.0 91 +45 +45 опасность
перегрева
1003.8 1001.7 0.6
00 11.09 ЮВ 1 7000 м 10/5 540 м
[Sc diur, vesp As trans]
+27.5 +27.0 97 +43 +43 опасность
перегрева
1003.0 1001.0
03 11.09 ЮВ 2 8000 м 8/5 540 м
[Sc diur, vesp As trans]
+30.4 +26.0 77 +45 +49 опасность
перегрева
1004.8 1002.7 +27.4
06 11.09 ЮВ 1 8000 м 8/5 540 м
[Sc diur, vesp As trans]
+32.0 +26.0 71 +48 +55 опасность
перегрева
1004.2 1002.2
09 11.09 В 3 8000 м 9/5 540 м
[Sc diur, vesp Ac As]
+32.3 +26.0 69 +48 +49 опасность
перегрева
1002.3 1000.3
12 11.09 СВ 2 6000 м в посл. час дождь 9/4 540 м
[Sc As trans]
+30.2 +27.0 83 +47 +47 опасность
перегрева
1002.4 1000.4 +32.6 0.0
15 11.09 В 1 5000 м 8/3 540 м
[Sc Ac trans]
+29.2 +26.0 83 +44 +44 опасность
перегрева
1004.7 1002.6
18 11.09 штиль 0 5000 м 10/4 540 м
[Sc As trans]
+28.2 +26.0 88 +42 +42 опасность
перегрева
1005.5 1003.4
00 12.09 В 3 6000 м 10/5 540 м
[Sc As op]
+27.4 +25.0 87 +39 +39 очень
душно
1004.5 1002.5
03 12.09 ЮВ 3 6000 м 10/5 480 м
[Cb calv As op]
+28.3 +25.0 82 +41 +41 опасность
перегрева
1007.3 1005.2 +27.2
06 12.09 ЮВ 3 6000 м 10/5 480 м
[Cb calv As op]
+29.7 +26.0 81 +45 +46 опасность
перегрева
1007.2 1005.1
09 12.09 ЮВ 3 2000 м слаб. дождь 10/6 480 м
[Cb calv As op]
+29.3 +26.0 82 +44 +44 опасность
перегрева
1004.7 1002.6
12 12.09 ЮВ 2 4000 м слаб. дождь 10/6 480 м
[Cb calv As op]
+27.6 +27.0 97 +43 +43 опасность
перегрева
1005.0 1002.9 +31.1 2
15 12.09 ЮВ 1 5000 м 10/4 480 м
[Sc As op]
+27.5 +25.0 86 +39 +39 очень
душно
1007.6 1005.5
18 12.09 ЮВ 1 5000 м 10/4 480 м
[Sc As op]
+27.2 +25.0 88 +39 +39 очень
душно
1008.0 1005.9
00 13.09 ЮВ 1 5000 м 10/4 540 м
[Sc As op]
+27.0 +25.0 89 +39 +39 очень
душно
1007.9 1005.8
03 13.09 ЮВ 2 7000 м 10/6 300 м
[Sc diur, vesp As op]
+27.8 +26.0 90 +42 +43 опасность
перегрева
1009.4 1007.4 +26.6
06 13.09 ЮВ 1 5000 м гроза, ливневой дождь 10/8 300 м
[Cb calv As op]
+28.2 +27.0 93 +44 +45 опасность
перегрева
1008.9 1006.9 4
09 13.09 Ю 1 5000 м гроза, ливневой дождь 10/8 300 м
[Cb calv As op]
+26.0 +25.0 94 +37 +38 очень
душно
1007.3 1005.3
12 13.09 ЮВ 1 5000 м гроза, ливневой дождь 10/8 300 м
[Cb calv As op]
+26.0 +25.0 94 +37 +37 очень
душно
1006.5 1004.5 +29.5 32
15 13.09 СВ 1 4000 м слаб. дождь {гроза} 10/5 480 м
[Sc As op]
+26.0 +25.0 94 +37 +37 очень
душно
1008.1 1006.1
18 13.09 В 1 4000 м зарница {гроза, дождь} 10/5 480 м
[Cb calv As op]
+26.5 +26.0 97 +40 +40 очень
душно
1008.2 1006.2 18
00 14.09 ЮВ 2 5000 м {гроза, дождь} 10/5 480 м
[Sc As op]
+26.5 +26.5 100 +40 +40 очень
душно
1006.8 1004.8 48
03 14.09 Ю 2 6000 м 10/8 300 м
[St As op]
+28.0 +26.0 89 +42 +42 опасность
перегрева
1009.1 1007.1 +25.5
06 14.09 Ю 3 7000 м 10/6 300 м
[St As op]
+30.0 +26.0 79 +45 +46 опасность
перегрева
1008.2 1006.2
09 14.09 Ю 2 8000 м 6/3 540 м
[Sc diur, vesp Ac trans]
+32.0 +25.0 67 +46 +51 опасность
перегрева
1005.5 1003.4
12 14.09 ЮВ 2 7000 м 6/3 540 м
[Sc Ac trans]
+29.5 +26.0 81 +44 +44 опасность
перегрева
1005.0 1002.9 +32.6
15 14.09 В 1 5000 м в посл. час дождь 9/4 480 м
[Cb calv As trans]
+28.0 +26.0 89 +42 +42 опасность
перегрева
1007.8 1005.7
18 14.09 В 1 5000 м {гроза, дождь} 10/4 480 м
[Cb calv As trans]
+27.8 +27.0 95 +44 +44 опасность
перегрева
1007.3 1005.2 0.0
00 15.09 ЮВ 1 5000 м мгла 10/4 540 м
[Sc As trans]
+27.3 +26.0 93 +41 +41 опасность
перегрева
1006.9 1004.8
03 15.09 ЮВ 2 6000 м мгла 9/4 540 м
[Sc As trans]
+29.5 +27.0 86 +46 +49 опасность
перегрева
1008.2 1006.1 +27.0
06 15.09 ЮВ 1 6000 м в посл. час дождь 10/4 540 м
[Sc As op]
+33.2 +26.0 66 +49 +52 опасность
перегрева
1006.5 1004.5 0.1
09 15.09 ЮВ 2 7000 м гроза без осадков 10/5 500 м
[Cb calv As trans]
+32.5 +27.0 73 +51 +53 опасность
перегрева
1003.7 1001.7
12 15.09 В 1 6000 м в посл. час дождь {гроза} 10/5 480 м
[Cb calv As op]
+27.6 +27.0 97 +43 +43 опасность
перегрева
1003.2 1001.1 +33.0 4
15 15.09 СВ 2 5000 м гроза без осадков 9/5 480 м
[Cb cap As op]
+27.6 +25.0 86 +40 +40 очень
душно
1005.9 1003.8
18 15.09 ЮВ 1 5000 м {гроза} 10/5 480 м
[Cb calv As op]
+27.0 +25.0 89 +39 +39 очень
душно
1006.2 1004.1

 

Местоположение метеостанции Маймансингх (Бангладеш): широта 24.72 долгота 90.43 высота над уровнем моря 19 м.

В архиве по умолчанию представлена погода в Маймансингхе за последнюю неделю. Архивные данные за месяц целиком и за предыдущие месяцы, начиная с января 2011 года, Вы можете получить, выбрав интересующий диапазон дат из раскрывающегося списка и нажав кнопку "Ввод!".


*Определитесь, кто Вы:
робот инопланетянин человек

Внимание! Время в таблицах - всемирное. Для получения местного времени необходимо прибавить поправку, которая равна 6.5 ч.

Смотрите также архив погоды в соседних городах и на ближайших метеорологических станциях:

Погода в Нетрокона-Садаре (Бангладеш) (36 км)
Погода в Никли (Бангладеш) (67 км)
Погода в Тангайле (Бангладеш) (73 км)
Погода в Дакке (Бангладеш) (106 км)
Погода в Богре (Бангладеш) (108 км)
Погода в Агартале (Трипура, Индия) (125 км)
Погода в Тараше (Бангладеш) (132 км)
Погода в Фаридпуре (Бангладеш) (138 км)
Погода в Стримангале (Бангладеш) (140 км)
Погода в Черапунджи (Мегхалая, Индия) (144 км)

Пояснения к столбцам:

Ветер - указаны скорость ветра в м/с - средняя за 10 мин, порывы в срок и между сроками (в фигурных скобках) и направление, откуда дует ветер: С - северный, СВ - северо-восточный, В - восточный, ЮВ - юго-восточный, Ю - южный, ЮЗ - юго-западный, З - западный, СЗ - северо-западный.
Видимость - горизонтальная дальность видимости в метрах или километрах. При видимости от 1 до 10 км при отсутствии осадков обычно наблюдается дымка, при ухудшении видимости до 1 км и менее - туман. В сухую погоду видимость может ухудшаться дымом, пылью или мглою.
Явления - указаны атмосферные явления, наблюдавшиеся в срок или в последний час перед сроком; фигурными скобками обозначены явления, наблюдавшиеся между сроками (за 1-3 часа до срока); квадратными скобками обозначены град или гололедные отложения с указанием их диаметра в мм.
Облачность - указаны через наклонную черту общая и нижняя облачность в баллах и высота нижней границы облаков в метрах; квадратными скобками обозначены формы облаков: Ci - перистые, Cs - перисто-слоистые, Cc - перисто-кучевые, Ac - высококучевые, As - высокослоистые, Sc - слоисто-кучевые, Ns - слоисто-дождевые, Cu - кучевые, Cb - кучево-дождевые. Подробнее классификацию облаков см. в Атласе облаков (PDF).
T - Температура воздуха - температура, измеренная на высоте 2 м над землей.
Td - Температура точки росы - температура, при понижении до которой содержащийся в воздухе водяной пар достигнет насыщения.
f - Относительная влажность воздуха - влажноcть воздуха, измеренная на высоте 2 м над землей.
Te - Эффективная температура - температура, которую ощущает одетый по сезону человек в тени. Характеристика душности погоды. При расчете учитывается влияние влажности воздуха и скорости ветра на теплоощущения человека.
Tes - Эффективная температура на солнце - температура, которую ощущает человек, с поправкой на солнечный нагрев. Характеристика знойности погоды. Зависит от высоты солнца над горизонтом, облачности и скорости ветра. Ночью, в пасмурную погоду, а также при ветре 12 м/с и более поправка равна нулю.
P - Атмосферное давление - приведенное к уровню моря атмосферное давление.
Po - Атмосферное давление - измеренное на уровне метеостанции атмосферное давление.
Tmin - Минимальная температура - минимум температуры воздуха на высоте 2 м над землей.
Tmax - Максимальная температура - максимум температуры воздуха на высоте 2 м над землей.
R - Количество осадков - Количество выпавших осадков за период времени, мм. При наведении курсора мыши на число - период времени, за который выпало указанное количество осадков.
R24 - Количество осадков - Количество выпавших осадков за 24 часа, мм.
S - Снежный покров - Высота снежного покрова, см. При наведении курсора мыши на число - состояние снежного покрова и степень покрытия местности в баллах.